Terminal Aerodrome Forecast
Issued by NWS Flagstaff, AZ

Home | Current Version | Previous Version | Text Only | Print | Product List | Glossary On
Versions: 1 2 3 4 5 6 7 8 9 10 11 12 13 14 15 16 17 18
000
FTUS45 KFGZ 031120
TAFINW
TAF
KINW 031120Z 0312/0412 25006KT P6SM FEW100 BKN250
     FM032030 06007KT P6SM SCT100 SCT120
     FM040600 VRB06KT P6SM SCT080 BKN200=

USA.gov is the U.S. government's official web portal to all federal, state and local government web resources and services.